GW1475 Weather Reports


Display with metric or nautical units.
time (UTC)temp
F
wind
direction
speed
MPH
gust
MPH
rain 1hr
in
rain 24hr
in
rain mn
in
humidity
%
barometer
mb
20260508141518 57 113 3.0 3.0 0.00 0.00 0.00 76 1011.5
20260508140936 56 128 3.0 3.0 0.00 0.00 0.00 75 1011.8
20260508135748 53 119 2.0 2.0 0.00 0.00 0.00 89 1011.8
20260508135145 52 120 2.0 2.0 0.00 0.00 0.00 92 1011.8
20260508134522 51 119 0.0 1.0 0.00 0.00 0.00 95 1011.8
20260508133916 50 118 0.0 0.0 0.00 0.00 0.00 97 1012.5
20260508133312 50 117 0.0 0.0 0.00 0.00 0.00 99 1012.1
20260508132726 48 121 0.0 0.0 0.00 0.00 0.00 99 1012.1
20260508132122 47 118 0.0 0.0 0.00 0.00 0.00 99 1011.8
20260508130308 45 136 0.0 0.0 0.00 0.00 0.00 99 1012.1
20260508125126 44 136 0.0 0.0 0.00 0.00 0.00 99 1012.1
20260508123936 40 136 0.0 0.0 0.00 0.00 0.00 99 1012.5
20260508123350 39 136 0.0 0.0 0.00 0.00 0.00 99 1012.5
20260508122731 39 136 0.0 0.0 0.00 0.00 0.00 99 1012.5
20260508122120 38 129 0.0 0.0 0.00 0.00 0.00 99 1012.1
20260508121537 38 71 0.0 0.0 0.00 0.00 0.00 99 1012.1
20260508120920 38 128 1.0 1.0 0.00 0.00 0.00 99 1012.5
20260508115710 37 134 0.0 0.0 0.00 0.00 0.00 99 1012.1
20260508115148 36 148 1.0 1.0 0.00 0.00 0.00 99 1012.1
20260508114519 36 140 1.0 1.0 0.00 0.00 0.00 99 1012.1
20260508113930 36 137 1.0 1.0 0.00 0.00 0.00 99 1012.1
20260508113316 36 132 0.0 1.0 0.00 0.00 0.00 99 1012.1
20260508112719 36 137 1.0 2.0 0.00 0.00 0.00 99 1012.1
20260508112143 36 130 1.0 1.0 0.00 0.00 0.00 99 1012.1
20260508111542 36 124 1.0 2.0 0.00 0.00 0.00 99 1012.1
20260508110922 36 143 1.0 1.0 0.00 0.00 0.00 99 1011.8
20260508110326 36 124 2.0 2.0 0.00 0.00 0.00 99 1012.1
20260508105142 36 122 2.0 2.0 0.00 0.00 0.00 99 1011.8
20260508103936 36 143 1.0 2.0 0.00 0.00 0.00 99 1011.8
20260508103338 36 140 1.0 1.0 0.00 0.00 0.00 99 1011.5
20260508102715 36 144 1.0 2.0 0.00 0.00 0.00 99 1011.8
20260508102115 36 139 1.0 1.0 0.00 0.00 0.00 99 1011.5
20260508101512 36 135 1.0 2.0 0.00 0.00 0.00 99 1011.5
20260508100938 36 133 1.0 2.0 0.00 0.00 0.00 99 1011.5
20260508100331 36 142 1.0 1.0 0.00 0.00 0.00 99 1011.5
20260508095748 37 131 1.0 1.0 0.00 0.00 0.00 99 1011.5
20260508095130 37 144 1.0 1.0 0.00 0.00 0.00 99 1011.5
20260508094522 37 124 2.0 2.0 0.00 0.00 0.00 99 1011.5
20260508093943 37 132 1.0 2.0 0.00 0.00 0.00 99 1011.5
20260508092722 37 123 0.0 1.0 0.00 0.00 0.00 99 1011.5
20260508092142 37 136 1.0 1.0 0.00 0.00 0.00 99 1011.5
20260508091528 37 118 1.0 1.0 0.00 0.00 0.00 99 1011.5
20260508090932 37 139 1.0 1.0 0.00 0.00 0.00 99 1011.5
20260508085139 37 126 2.0 2.0 0.00 0.00 0.00 99 1011.1
20260508084547 37 126 1.0 1.0 0.00 0.00 0.00 99 1011.1
20260508083912 37 129 1.0 1.0 0.00 0.00 0.00 99 1011.1
20260508083313 38 138 1.0 1.0 0.00 0.00 0.00 99 1011.1
20260508082735 37 122 1.0 2.0 0.00 0.00 0.00 99 1011.1
20260508082150 38 134 2.0 2.0 0.00 0.00 0.00 99 1011.1
20260508081537 38 130 1.0 2.0 0.00 0.00 0.00 99 1011.1
20260508080328 38 140 1.0 1.0 0.00 0.00 0.00 99 1011.1
20260508075731 38 128 0.0 1.0 0.00 0.00 0.00 99 1011.1
20260508075120 38 119 2.0 2.0 0.00 0.00 0.00 99 1010.8
20260508074529 38 148 0.0 0.0 0.00 0.00 0.00 99 1011.1
20260508073327 38 143 0.0 0.0 0.00 0.00 0.00 99 1010.8
20260508072733 38 134 1.0 1.0 0.00 0.00 0.00 99 1011.1
20260508072115 38 139 0.0 1.0 0.00 0.00 0.00 99 1011.1
20260508071537 38 140 1.0 1.0 0.00 0.00 0.00 99 1010.8
20260508070951 38 141 0.0 0.0 0.00 0.00 0.00 99 1011.1
20260508070338 38 165 0.0 0.0 0.00 0.00 0.00 99 1010.8
20260508065738 38 165 0.0 0.0 0.00 0.00 0.00 99 1010.8
20260508065133 38 166 0.0 0.0 0.00 0.00 0.00 99 1011.1
20260508064520 38 165 0.0 0.0 0.00 0.00 0.00 99 1011.1
20260508063925 38 166 0.0 0.0 0.00 0.00 0.00 99 1010.8
20260508063318 38 166 0.0 0.0 0.00 0.00 0.00 99 1011.1
20260508062742 38 166 0.0 0.0 0.00 0.00 0.00 99 1011.1
20260508062146 38 166 0.0 0.0 0.00 0.00 0.00 99 1011.1
20260508061530 39 167 0.0 0.0 0.00 0.00 0.00 99 1011.1
20260508060909 39 166 0.0 0.0 0.00 0.00 0.00 99 1011.1
20260508060341 39 166 0.0 0.0 0.00 0.00 0.00 99 1011.1
20260508055751 39 166 0.0 0.0 0.00 0.00 0.00 99 1011.1
20260508055141 39 166 0.0 0.0 0.00 0.00 0.00 99 1011.1
20260508054544 39 166 0.0 0.0 0.00 0.00 0.00 99 1011.1
20260508052738 40 166 0.0 0.0 0.00 0.00 0.00 99 1011.1
20260508052132 40 166 0.0 0.0 0.00 0.00 0.00 99 1011.1
20260508051526 40 166 0.0 0.0 0.00 0.00 0.00 99 1011.1
20260508050945 40 166 0.0 0.0 0.00 0.00 0.00 99 1010.8
20260508050309 40 166 0.0 0.0 0.00 0.00 0.00 99 1011.1
20260508045724 40 166 0.0 0.0 0.00 0.00 0.00 99 1011.1
20260508045128 40 166 0.0 0.0 0.00 0.00 0.00 99 1011.1
20260508044542 41 166 0.0 0.0 0.00 0.00 0.00 99 1010.8
20260508043936 41 167 0.0 1.0 0.00 0.00 0.00 99 1010.8
20260508043347 41 166 0.0 0.0 0.00 0.00 0.00 99 1011.1
20260508042723 41 165 0.0 0.0 0.00 0.00 0.00 99 1011.1
20260508042141 41 165 0.0 0.0 0.00 0.00 0.00 99 1011.1
20260508041532 41 166 0.0 0.0 0.00 0.00 0.00 99 1010.8
20260508040318 42 166 0.0 0.0 0.00 0.00 0.00 99 1011.1
20260508035120 42 166 0.0 0.0 0.00 0.00 0.01 99 1010.8
20260508034526 42 166 0.0 0.0 0.00 0.00 0.01 99 1010.4
20260508033916 43 166 0.0 0.0 0.00 0.00 0.01 99 1010.8
20260508033321 43 166 0.0 0.0 0.00 0.00 0.01 99 1010.8
20260508032734 43 166 0.0 0.0 0.00 0.00 0.01 99 1010.8
20260508032147 43 166 0.0 0.0 0.00 0.00 0.01 99 1010.8
20260508031526 43 166 0.0 0.0 0.00 0.00 0.01 99 1010.8
20260508030931 44 166 0.0 0.0 0.00 0.00 0.01 99 1010.8
20260508030311 44 166 0.0 0.0 0.00 0.00 0.01 99 1010.4
20260508025719 44 166 0.0 0.0 0.00 0.00 0.01 99 1010.4
20260508025114 44 166 0.0 0.0 0.00 0.00 0.01 99 1010.4
20260508024525 44 166 0.0 0.0 0.00 0.00 0.01 99 1010.1
20260508023946 44 166 0.0 0.0 0.00 0.00 0.01 99 1010.1
20260508023341 45 166 0.0 0.0 0.00 0.00 0.01 99 1010.1
20260508022723 45 166 0.0 0.0 0.00 0.00 0.01 99 1010.1
20260508021515 46 166 0.0 0.0 0.00 0.00 0.01 98 1009.8
20260508020945 46 166 0.0 0.0 0.00 0.00 0.01 98 1009.8
20260508020349 46 166 0.0 0.0 0.00 0.00 0.01 97 1009.8
20260508015738 46 166 0.0 0.0 0.00 0.00 0.01 97 1009.8
20260508015145 47 166 0.0 0.0 0.00 0.00 0.01 96 1009.4
20260508014517 47 166 0.0 0.0 0.00 0.00 0.01 96 1009.4
20260508012725 48 166 0.0 0.0 0.00 0.00 0.01 94 1009.1
20260508011528 49 165 0.0 0.0 0.00 0.00 0.01 92 1009.4
20260508010935 49 164 0.0 0.0 0.00 0.00 0.01 91 1008.8
20260508010349 50 164 0.0 0.0 0.00 0.00 0.01 90 1008.8
20260508005736 50 162 0.0 0.0 0.00 0.00 0.01 90 1008.8
20260508003908 52 179 0.0 0.0 0.00 0.00 0.01 87 1008.4
20260508003340 52 168 0.0 0.0 0.00 0.00 0.01 85 1008.4
20260508002734 53 187 0.0 0.0 0.00 0.00 0.01 84 1008.4
20260508002110 53 304 0.0 1.0 0.00 0.00 0.01 83 1008.4
20260508001532 54 322 0.0 0.0 0.00 0.00 0.01 82 1008.1
20260508000949 55 321 0.0 0.0 0.00 0.00 0.01 81 1008.1
20260508000335 55 323 0.0 0.0 0.00 0.00 0.01 78 1008.1
20260507235747 56 166 1.0 1.0 0.00 0.00 0.01 77 1007.7
20260507235119 56 162 1.0 1.0 0.00 0.00 0.01 73 1007.7
20260507234551 57 63 1.0 1.0 0.00 0.00 0.01 73 1007.7
20260507233938 58 342 3.0 3.0 0.00 0.00 0.01 70 1007.7
20260507233347 58 13 1.0 1.0 0.00 0.00 0.01 70 1007.4
20260507231535 61 222 1.0 1.0 0.00 0.00 0.01 53 1007.4
20260507225744 64 217 2.0 2.0 0.00 0.00 0.01 50 1007.4
20260507225120 65 163 1.0 3.0 0.00 0.00 0.01 45 1007.4
20260507224527 65 213 3.0 4.0 0.00 0.00 0.01 44 1007.7
20260507223918 65 152 2.0 6.0 0.00 0.00 0.01 45 1007.4
20260507223338 66 12 5.0 6.0 0.00 0.00 0.01 44 1007.4
20260507222719 68 16 4.0 4.0 0.00 0.00 0.01 45 1007.1
20260507221516 66 239 0.0 0.0 0.00 0.00 0.01 45 1007.1
20260507220312 66 193 1.0 1.0 0.00 0.00 0.01 45 1007.1
20260507215738 66 210 1.0 2.0 0.00 0.00 0.01 46 1007.1
20260507215144 66 13 2.0 2.0 0.00 0.00 0.01 46 1007.1
20260507213944 66 134 4.0 4.0 0.00 0.00 0.01 46 1007.1
20260507212737 66 283 1.0 1.0 0.00 0.00 0.01 45 1006.7
20260507211532 67 174 1.0 2.0 0.00 0.00 0.01 45 1006.7
20260507210928 67 207 2.0 2.0 0.00 0.00 0.01 48 1006.4
20260507210344 65 311 3.0 3.0 0.00 0.00 0.01 48 1006.7
20260507204547 64 206 2.0 6.0 0.00 0.00 0.01 48 1006.7
20260507202737 65 265 5.0 8.0 0.00 0.00 0.01 47 1006.4
20260507202152 65 65 4.0 6.0 0.00 0.00 0.01 48 1006.4
20260507201538 65 77 3.0 3.0 0.00 0.00 0.01 48 1006.4
20260507200938 64 130 0.0 0.0 0.00 0.00 0.01 51 1006.4
20260507195752 64 66 2.0 3.0 0.00 0.00 0.01 49 1006.7
20260507195151 64 77 5.0 6.0 0.00 0.00 0.01 49 1006.7
20260507194514 65 289 8.0 10.0 0.00 0.00 0.01 46 1007.1
20260507193951 64 151 3.0 3.0 0.00 0.00 0.01 53 1006.7
20260507192732 63 106 6.0 9.0 0.00 0.00 0.01 54 1007.1
20260507192146 63 89 4.0 4.0 0.00 0.00 0.01 53 1007.1
20260507191535 63 326 5.0 6.0 0.00 0.00 0.01 53 1007.1
20260507190936 64 349 2.0 2.0 0.00 0.00 0.01 55 1007.1
20260507185724 62 234 2.0 3.0 0.00 0.00 0.01 58 1007.1
20260507185150 62 62 3.0 4.0 0.00 0.00 0.01 58 1007.4
20260507184549 61 92 3.0 3.0 0.00 0.00 0.01 60 1007.4
20260507183952 62 98 2.0 2.0 0.00 0.00 0.01 59 1007.7
20260507183308 62 14 3.0 4.0 0.00 0.00 0.01 59 1007.7
20260507182714 62 99 0.0 1.0 0.00 0.00 0.01 60 1007.7
20260507182150 63 183 1.0 1.0 0.00 0.00 0.01 59 1007.4
20260507181510 63 314 5.0 7.0 0.00 0.00 0.01 58 1007.7
20260507180928 63 293 2.0 3.0 0.00 0.00 0.01 59 1007.7
20260507180324 64 266 1.0 1.0 0.00 0.00 0.01 60 1007.7
20260507174520 60 355 2.0 2.0 0.00 0.00 0.01 65 1008.1
20260507173945 60 48 3.0 3.0 0.00 0.00 0.01 66 1008.1
20260507172732 62 173 3.0 3.0 0.00 0.00 0.01 67 1008.1
20260507172129 63 117 2.0 2.0 0.00 0.00 0.01 65 1008.1
20260507170911 60 234 3.0 3.0 0.00 0.00 0.01 66 1008.4
20260507170321 59 81 0.0 1.0 0.00 0.00 0.01 67 1008.4
20260507165750 59 6 1.0 1.0 0.00 0.00 0.01 65 1008.8
20260507165135 59 233 2.0 2.0 0.00 0.00 0.01 68 1008.4
20260507163923 60 252 1.0 2.0 0.00 0.00 0.01 64 1008.8
20260507162722 59 343 1.0 1.0 0.00 0.00 0.01 65 1008.8
20260507162152 59 266 2.0 2.0 0.00 0.00 0.01 66 1008.8
20260507161555 58 171 1.0 1.0 0.00 0.00 0.01 65 1008.8
20260507160923 59 254 2.0 2.0 0.00 0.00 0.01 67 1008.8
20260507160346 58 135 2.0 3.0 0.00 0.00 0.01 70 1008.8
20260507155731 58 167 2.0 3.0 0.00 0.00 0.01 66 1008.8
20260507155123 58 258 4.0 4.0 0.00 0.00 0.01 67 1008.8
20260507154519 59 298 4.0 4.0 0.00 0.00 0.01 65 1008.8
20260507153911 59 142 1.0 1.0 0.00 0.00 0.01 65 1008.8
20260507153315 58 77 1.0 2.0 0.00 0.00 0.01 65 1008.8
20260507152750 58 7 1.0 2.0 0.00 0.00 0.01 66 1008.8
20260507151534 56 263 2.0 3.0 0.00 0.00 0.01 70 1008.8
20260507150347 56 304 4.0 6.0 0.00 0.00 0.01 74 1008.8
20260507145715 57 0 2.0 2.0 0.00 0.00 0.01 77 1009.1
20260507145111 56 254 2.0 2.0 0.00 0.00 0.01 77 1008.8
20260507144515 56 309 2.0 2.0 0.00 0.00 0.01 72 1009.1
20260507143939 57 317 2.0 3.0 0.00 0.00 0.01 79 1008.8
20260507143320 56 263 1.0 2.0 0.00 0.00 0.01 78 1008.8
20260507142123 55 304 1.0 1.0 0.00 0.00 0.01 85 1009.1